Spearfish, SD

8:51 AM MDT on April 19, 2018 (GMT -0600)
Black Hills-Ice

Weather History for KSPF - January, 2013

Change the Weather History Date:

Saturday, January 5, 2013

  Actual Average (KEFC) Record (KEFC)
Temperature  
Mean Temperature 30 °F -  
Max Temperature 35 °F 32 °F 62 °F (1984)
Min Temperature 26 °F 7 °F -20 °F (1979)
Degree Days  
Heating Degree Days 34    
Moisture  
Dew Point 16 °F    
Average Humidity 54    
Maximum Humidity 64    
Minimum Humidity 44    
Precipitation  
Precipitation 0.00 in - - ()
Sea Level Pressure  
Sea Level Pressure 30.12 in    
Wind  
Wind Speed 13 mph (West)    
Max Wind Speed 22 mph    
Max Gust Speed 31 mph    
Visibility 10 miles    
Events      
Averages and records for this station are not official NWS values.
T = Trace of Precipitation, MM = Missing Value Source: NWS Daily Summary

Daily Weather History Graph

Daily Weather History Graph

Search for Another Location

Airport or City:

Astronomy

Jan. 05, 2013 Rise Set
Actual Time 8:31 AM CST 5:30 PM CST
Civil Twilight 7:58 AM CST 6:03 PM CST
Nautical Twilight 7:21 AM CST 6:39 PM CST
Astronomical Twilight 6:46 AM CST 7:15 PM CST
Moon 1:32 AM CST (1/5) 12:28 PM CST (1/5)
Length of Visible Light 10h 05m
Length of Day
8h 58m
Last Quarter, 44% of the Moon is Illuminated
Jan 5
Last Quarter
Jan 11
New
Jan 18
First Quarter
Jan 26
Full
Feb 3
Last Quarter

Hourly Weather History & Observations

Time (CST) Temp. Windchill Dew Point Humidity Pressure Visibility Wind Dir Wind Speed Gust Speed Precip Events Conditions
12:35 AM 28.4 °F 20.4 °F 14.0 °F 55% 30.03 in 10.0 mi West 8.1 mph - N/A   Clear
12:55 AM 28.4 °F 21.2 °F 14.0 °F 55% 30.03 in 10.0 mi West 6.9 mph - N/A   Clear
1:15 AM 28.4 °F 23.3 °F 14.0 °F 55% 30.02 in 10.0 mi WNW 4.6 mph - N/A   Clear
1:35 AM 26.6 °F 19.1 °F 14.0 °F 59% 30.03 in 10.0 mi West 6.9 mph - N/A   Clear
1:55 AM 26.6 °F 20.0 °F 14.0 °F 59% 30.04 in 10.0 mi WNW 5.8 mph - N/A   Clear
2:15 AM 26.6 °F 18.2 °F 14.0 °F 59% 30.04 in 10.0 mi WSW 8.1 mph - N/A   Clear
2:35 AM 28.4 °F 20.4 °F 14.0 °F 55% 30.05 in 10.0 mi West 8.1 mph - N/A   Partly Cloudy
2:55 AM 30.2 °F 20.8 °F 15.8 °F 55% 30.06 in 10.0 mi West 11.5 mph - N/A   Mostly Cloudy
3:15 AM 32.0 °F 23.0 °F 17.6 °F 55% 30.07 in 10.0 mi West 11.5 mph 17.3 mph N/A   Overcast
3:55 AM 33.8 °F 23.2 °F 17.6 °F 52% 30.06 in 10.0 mi West 17.3 mph 21.9 mph N/A   Mostly Cloudy
4:15 AM 33.8 °F 23.5 °F 19.4 °F 56% 30.05 in 10.0 mi West 16.1 mph 23.0 mph N/A   Mostly Cloudy
4:35 AM 33.8 °F 23.9 °F 19.4 °F 56% 30.05 in 10.0 mi West 15.0 mph 24.2 mph N/A   Overcast
4:55 AM 33.8 °F 23.5 °F 19.4 °F 56% 30.05 in 10.0 mi West 16.1 mph 26.5 mph N/A   Mostly Cloudy
5:15 AM 33.8 °F 22.8 °F 19.4 °F 56% 30.04 in 10.0 mi West 18.4 mph 27.6 mph N/A   Scattered Clouds
5:55 AM 32.0 °F 20.8 °F 19.4 °F 60% 30.05 in 10.0 mi West 17.3 mph 24.2 mph N/A   Overcast
6:15 AM 32.0 °F 20.8 °F 17.6 °F 55% 30.06 in 10.0 mi West 17.3 mph 24.2 mph N/A   Mostly Cloudy
6:55 AM 32.0 °F 20.1 °F 17.6 °F 55% 30.06 in 10.0 mi West 19.6 mph 26.5 mph N/A   Clear
7:15 AM 32.0 °F 20.8 °F 17.6 °F 55% 30.07 in 10.0 mi West 17.3 mph 27.6 mph N/A   Clear
7:35 AM 32.0 °F 21.2 °F 17.6 °F 55% 30.08 in 10.0 mi WNW 16.1 mph 29.9 mph N/A   Clear
7:55 AM 32.0 °F 20.8 °F 17.6 °F 55% 30.09 in 10.0 mi WNW 17.3 mph 27.6 mph N/A   Clear
8:15 AM 30.2 °F 17.4 °F 17.6 °F 60% 30.09 in 10.0 mi WNW 20.7 mph 28.8 mph N/A   Clear
8:55 AM 30.2 °F 18.1 °F 19.4 °F 64% 30.12 in 10.0 mi WNW 18.4 mph 21.9 mph N/A   Clear
9:15 AM 32.0 °F 20.5 °F 19.4 °F 60% 30.13 in 10.0 mi WNW 18.4 mph 27.6 mph N/A   Clear
9:35 AM 32.0 °F 20.1 °F 19.4 °F 60% 30.13 in 10.0 mi West 19.6 mph 27.6 mph N/A   Mostly Cloudy
9:55 AM 32.0 °F 20.5 °F 19.4 °F 60% 30.15 in 10.0 mi WNW 18.4 mph - N/A   Scattered Clouds
10:15 AM 30.2 °F 17.8 °F 19.4 °F 64% 30.16 in 10.0 mi WNW 19.6 mph 29.9 mph N/A   Clear
10:35 AM 30.2 °F 17.1 °F 17.6 °F 60% 30.16 in 10.0 mi WNW 21.9 mph 26.5 mph N/A   Clear
10:55 AM 32.0 °F 19.5 °F 17.6 °F 55% 30.15 in 10.0 mi West 21.9 mph 27.6 mph N/A   Clear
11:15 AM 32.0 °F 20.1 °F 15.8 °F 51% 30.16 in 10.0 mi WNW 19.6 mph 31.1 mph N/A   Clear
11:55 AM 32.0 °F 20.8 °F 15.8 °F 51% 30.15 in 10.0 mi WNW 17.3 mph 26.5 mph N/A   Clear
12:15 PM 32.0 °F 19.8 °F 15.8 °F 51% 30.14 in 10.0 mi West 20.7 mph 24.2 mph N/A   Clear
12:35 PM 32.0 °F 19.5 °F 15.8 °F 51% 30.14 in 10.0 mi West 21.9 mph 29.9 mph N/A   Clear
12:55 PM 32.0 °F 21.6 °F 15.8 °F 51% 30.14 in 10.0 mi WNW 15.0 mph 25.3 mph N/A   Clear
1:15 PM 32.0 °F 20.8 °F 15.8 °F 51% 30.13 in 10.0 mi WNW 17.3 mph 27.6 mph N/A   Clear
1:35 PM 33.8 °F 23.5 °F 15.8 °F 48% 30.13 in 10.0 mi WNW 16.1 mph 24.2 mph N/A   Clear
1:55 PM 33.8 °F 23.5 °F 15.8 °F 48% 30.12 in 10.0 mi WNW 16.1 mph 23.0 mph N/A   Clear
2:15 PM 35.6 °F 26.2 °F 15.8 °F 44% 30.12 in 10.0 mi WNW 15.0 mph 23.0 mph N/A   Clear
2:35 PM 35.6 °F 25.2 °F 15.8 °F 44% 30.12 in 10.0 mi WNW 18.4 mph 21.9 mph N/A   Clear
2:55 PM 35.6 °F 25.9 °F 17.6 °F 48% 30.14 in 10.0 mi WNW 16.1 mph 21.9 mph N/A   Clear
3:15 PM 35.6 °F 26.6 °F 15.8 °F 44% 30.14 in 10.0 mi WNW 13.8 mph 21.9 mph N/A   Clear
3:35 PM 35.6 °F 27.1 °F 15.8 °F 44% 30.15 in 10.0 mi WNW 12.7 mph 17.3 mph N/A   Clear
3:55 PM 35.6 °F 26.6 °F 15.8 °F 44% 30.15 in 10.0 mi West 13.8 mph 20.7 mph N/A   Clear
4:15 PM 35.6 °F 25.9 °F 15.8 °F 44% 30.15 in 10.0 mi WNW 16.1 mph 20.7 mph N/A   Clear
4:35 PM 33.8 °F 24.3 °F 15.8 °F 48% 30.16 in 10.0 mi WNW 13.8 mph 19.6 mph N/A   Clear
4:55 PM 32.0 °F 22.1 °F 15.8 °F 51% 30.16 in 10.0 mi West 13.8 mph 18.4 mph N/A   Clear
5:15 PM 32.0 °F 22.5 °F 15.8 °F 51% 30.17 in 10.0 mi WNW 12.7 mph - N/A   Clear
5:35 PM 32.0 °F 22.1 °F 15.8 °F 51% 30.17 in 10.0 mi West 13.8 mph - N/A   Clear
5:55 PM 32.0 °F 21.6 °F 15.8 °F 51% 30.18 in 10.0 mi West 15.0 mph - N/A   Clear
6:15 PM 32.0 °F 21.6 °F 15.8 °F 51% 30.18 in 10.0 mi West 15.0 mph - N/A   Clear
6:35 PM 32.0 °F 22.1 °F 15.8 °F 51% 30.18 in 10.0 mi West 13.8 mph - N/A   Clear
6:55 PM 32.0 °F 22.5 °F 15.8 °F 51% 30.19 in 10.0 mi West 12.7 mph 16.1 mph N/A   Clear
7:15 PM 32.0 °F 22.5 °F 15.8 °F 51% 30.19 in 10.0 mi West 12.7 mph - N/A   Clear
7:35 PM 32.0 °F 23.0 °F 15.8 °F 51% 30.19 in 10.0 mi West 11.5 mph - N/A   Clear
7:55 PM 32.0 °F 23.0 °F 15.8 °F 51% 30.19 in 10.0 mi West 11.5 mph 17.3 mph N/A   Clear
8:35 PM 28.4 °F 19.7 °F 15.8 °F 59% 30.18 in 10.0 mi WSW 9.2 mph - N/A   Clear
8:55 PM 28.4 °F 19.7 °F 15.8 °F 59% 30.18 in 10.0 mi WSW 9.2 mph - N/A   Clear
9:15 PM 30.2 °F 19.8 °F 15.8 °F 55% 30.17 in 10.0 mi West 13.8 mph - N/A   Clear
9:35 PM 30.2 °F 20.2 °F 15.8 °F 55% 30.16 in 10.0 mi West 12.7 mph - N/A   Clear
9:55 PM 28.4 °F 18.0 °F 15.8 °F 59% 30.16 in 10.0 mi West 12.7 mph 17.3 mph N/A   Clear
10:15 PM 28.4 °F 19.1 °F 15.8 °F 59% 30.16 in 10.0 mi West 10.4 mph - N/A   Clear
10:35 PM 30.2 °F 20.2 °F 15.8 °F 55% 30.16 in 10.0 mi WSW 12.7 mph 18.4 mph N/A   Clear
10:55 PM 30.2 °F 20.8 °F 15.8 °F 55% 30.16 in 10.0 mi West 11.5 mph - N/A   Clear
11:15 PM 28.4 °F 18.0 °F 15.8 °F 59% 30.16 in 10.0 mi West 12.7 mph - N/A   Clear
11:35 PM 28.4 °F 19.7 °F 15.8 °F 59% 30.16 in 10.0 mi West 9.2 mph - N/A   Clear
11:55 PM 28.4 °F 19.7 °F 15.8 °F 59% 30.15 in 10.0 mi West 9.2 mph - N/A   Clear